Location: Skalnate Pleso
(49.1889°N, 20.2450°E)
Time: 23:43:57
(UTC+01:00)

Cosmos 2100 Rocket - Pass Details

Date: 19 November 2019
Orbit: 955 x 1001 km, 82.9° (Epoch: 05 December)

Event Time Altitude Azimuth Distance (km) Brightness Sun altitude
Rises 04:47:44 0° 196° (SSW) 3,646 6.9 -20.4°
Reaches altitude 10° 04:50:16 10° 200° (SSW) 2,698 6.2 -20.0°
Maximum altitude 04:56:23 66° 282° (WNW) 1,044 3.9 -19.0°
Drops below altitude 10° 05:02:32 10° 5° (N) 2,698 6.3 -18.0°
Sets 05:05:04 0° 8° (N) 3,647 7.0 -17.6°
